sat.trackr.live / text

‹ back to catalog

STARLINK-4509

NORAD 53404 · 2022-097S

PAYLOAD ACTIVE UNKNOWN

§ Identity

Operator
Country
US
Launch date
2022-08-10
Launch site
AFETR
Launch vehicle
Mass (kg)
RCS (m²)

Purposes: comms

External: N2YO · Heavens-Above · Gunter

§ Orbital elements

Epoch: 2026-05-25T05:19:00.743232Z

Period
95.44 min
Inclination
53.2139°
Eccentricity
0.0001145
Mean motion
15.08837226 rev/d
Perigee alt
539.0 km
Apogee alt
540.5 km
Semi-major
6,917.9 km
B*
7.5224e-5
RAAN
130.4903°
Arg perigee
66.2356°
Mean anomaly
293.8756°
Rev number
21,020

§ Raw data

STARLINK-45091 53404U 22097S   26145.22153638  .00000909  00000+0  75224-4 0  99952 53404  53.2139 130.4903 0001145  66.2356 293.8756 15.08837226210207

JSON: /api/v1/satellites/53404 · /tle

For live sub-satellite position, see the globe view (requires WebGL).

§ Visibility from observer

Set your observer location to see the next 7 days of passes ≥ 10°. The values pass through the URL so the page stays shareable.

No JS? Fill the form by hand. The geolocation button needs JavaScript.